Regional Weather Roundup
Issued by NWS

Home | Current Version | Previous Version | Text Only | Print | Product List | Glossary Off
Versions: 1 2 3 4 5 6 7 8 9 10 11 12 13 14 15 16 17 18 19 20 21 22 23 24 25 26 27 28 29 30 31 32 33 34 35 36 37 38 39 40 41 42 43 44 45 46 47 48 49 50

000
ASUS43 KOAX 252003
RWRNE

WEATHER ROUNDUP FOR NEBRASKA
NATIONAL WEATHER SERVICE OMAHA NE
300 PM CDT FRI MAY 25 2018

NOTES: SATELLITE DATA IS BEING USED TO AUGMENT CLOUD COVER ABOVE
       12000 FEET.
       "FAIR" INDICATES FEW OR NO CLOUDS BELOW 12,000 FEET WITH NO
       SIGNIFICANT WEATHER AND/OR OBSTRUCTIONS TO VISIBILITY.


NEZ001>004-019>022-054>056-252100-
NEBRASKA PANHANDLE

CITY           SKY/WX    TMP DP  RH WIND       PRES   REMARKS
SCOTTSBLUFF    SUNNY     86  49  27 NW9       29.97F
ALLIANCE       SUNNY     86  48  26 W10       29.95F
CHADRON        SUNNY     85  51  31 NW8       29.92F
GORDON         FAIR      85  51  30 W8        29.94S
KIMBALL        MOSUNNY   84  38  20 W6        30.03F
SIDNEY         MOSUNNY   84  38  19 VRB5      30.00F
$$

NEZ057>060-069>072-079>082-252100-
SOUTHWEST NEBRASKA

CITY           SKY/WX    TMP DP  RH WIND       PRES   REMARKS
NORTH PLATTE   SUNNY     90  55  30 W13       29.88F
IMPERIAL       PTSUNNY   90  38  16 VRB3      29.92F
LEXINGTON      SUNNY     90  57  32 W13       29.86F
MCCOOK         MOSUNNY   93  56  28 MISG      29.88F HX  91
OGALLALA       SUNNY     89  55  32 N13       29.92F
$$

NEZ005>010-023>029-035>040-094-252100-
NORTH CENTRAL NEBRASKA

CITY           SKY/WX    TMP DP  RH WIND       PRES   REMARKS
VALENTINE      MOSUNNY   91  56  30 MISG      29.86F
AINSWORTH      SUNNY     86  60  41 N6        29.87F
BROKEN BOW     SUNNY     92  54  27 MISG      29.85F HX  90
O`NEILL        SUNNY     90  59  35 SW5       29.83F
ORD            SUNNY     89  63  41 E8        29.81F HX  90
THEDFORD       SUNNY     90  53  28 W9G17     29.89F
$$

NEZ041-046>049-061>064-073>077-083>087-252100-
SOUTH CENTRAL NEBRASKA

CITY           SKY/WX    TMP DP  RH WIND       PRES   REMARKS
GRAND ISLAND   SUNNY     92  53  26 S9        29.84F
AURORA         SUNNY     90  51  26 SE5       29.83F
HASTINGS       SUNNY     90  54  29 VRB5      29.86F
HEBRON         SUNNY     93  56  28 S7        29.83F HX  92
HOLDREGE       SUNNY     89  58  34 S9        29.87F
KEARNEY        SUNNY     92  55  28 SW8       29.85F HX  90
YORK           SUNNY     90  57  33 W6        29.83F
$$

NEZ011>018-030>034-042>045-252100-
NORTHEAST NEBRASKA

CITY           SKY/WX    TMP DP  RH WIND       PRES   REMARKS
NORFOLK        SUNNY     92  56  29 NW5       29.77F HX  90
ALBION         SUNNY     91  62  38 CALM      29.81F HX  91
BLAIR          MOSUNNY   91  60  34 SE3       29.78F HX  91
FREMONT        MOSUNNY   96  55  25 W12       29.77F HX  94
TEKAMAH        SUNNY     92  63  38 NE6       29.76F HX  93
WAYNE          SUNNY     92  58  31 SE3       29.78F HX  91
$$

NEZ050>053-065>068-078-088>093-252100-
SOUTHEAST NEBRASKA

CITY           SKY/WX    TMP DP  RH WIND       PRES   REMARKS
LINCOLN        SUNNY     94  53  25 SW15      29.80F HX  91
OMAHA EPPLEY   MOSUNNY   92  60  34 SE5       29.77F HX  91
BEATRICE       SUNNY     91  65  41 SW8G16    29.82F HX  92
FALLS CITY     SUNNY     90  57  32 VRB7G17   29.81F
NEBRASKA CITY  SUNNY     90  61  37 SW9       29.81F HX  90
PLATTSMOUTH    SUNNY     92  59  33 SW6       29.79F HX  91
$$

NEZ044-045-051>053-067-252100-
OMAHA AREA

CITY           SKY/WX    TMP DP  RH WIND       PRES   REMARKS
OMAHA EPPLEY   MOSUNNY   92  60  34 SE5       29.77F HX  91
BLAIR          MOSUNNY   91  60  34 SE3       29.78F HX  91
FREMONT        MOSUNNY   96  55  25 W12       29.77F HX  94
MILLARD        SUNNY     93  60  32 S7        29.78F HX  93
OFFUTT AFB     SUNNY     92  60  33 W9        29.77F HX  91
PLATTSMOUTH    SUNNY     92  59  33 SW6       29.79F HX  91
$$




USA.gov is the U.S. government's official web portal to all federal, state and local government web resources and services.